Location: Boda
(47.1872°N, 9.5454°E)
Time: 09:53:49
(UTC+00:00)

Cosmos 2227 Rocket - Pass Details

Date: 14 May 2021
Orbit: 840 x 844 km, 71.0° (Epoch: 16 June)

Event Time Altitude Azimuth Distance (km) Brightness Sun altitude
Rises 01:55:07 0° 325° (NW) 3,405 5.6 -15.3°
Reaches altitude 10° 01:57:47 10° 316° (NW) 2,466 4.7 -15.0°
Maximum altitude 02:02:43 32° 255° (WSW) 1,403 2.9 -14.5°
Enters shadow 02:05:42 20° 207° (SSW) 1,856 3.4 -14.2°
